Location: Newark
(43.9494°N, 6.8108°E)
Time: 02:04:04
(UTC+00:00)

Tiros 1 - Visible Passes

Search period start: 23 October 2019 00:00
Search period end: 02 November 2019 00:00
Orbit: 630 x 664 km, 48.4° (Epoch: 21 October)

Date Brightness Start Highest point End Pass type
(mag) Time Alt. Az. Time Alt. Az. Time Alt. Az.
23 Oct 8.5 03:06:16 36° NE 03:06:16 36° NE 03:09:30 10° ENE visible
23 Oct 7.3 04:43:57 19° WNW 04:47:26 77° NNE 04:52:15 10° ESE visible
24 Oct 7.7 03:31:21 54° NNE 03:31:21 54° NNE 03:35:53 10° E visible
24 Oct 7.3 05:09:01 12° WNW 05:13:31 66° SSW 05:18:17 10° SE visible
25 Oct 10.1 02:18:47 14° ENE 02:18:47 14° ENE 02:19:26 10° ENE visible
25 Oct 7.2 03:56:28 56° NW 03:57:23 74° NNE 04:02:12 10° ESE visible
26 Oct 9.4 02:43:59 22° E 02:43:59 22° E 02:45:49 10° E visible
26 Oct 7.2 04:21:39 37° WNW 04:23:29 70° SSW 04:28:16 10° SE visible
27 Oct 8.6 03:09:14 36° E 03:09:14 36° E 03:12:09 10° ESE visible
27 Oct 7.9 04:46:56 22° W 04:49:23 37° SW 04:53:49 10° SSE visible
28 Oct 7.8 03:34:35 51° SE 03:34:35 51° SE 03:38:15 10° SE visible
28 Oct 8.8 05:12:16 12° W 05:15:06 19° SW 05:18:27 10° S visible
29 Oct 7.9 04:00:00 38° SSW 04:00:00 38° SSW 04:03:52 10° SSE visible
30 Oct 10.0 02:47:50 12° ESE 02:47:50 12° ESE 02:48:14 10° ESE visible
30 Oct 8.7 04:25:32 20° SW 04:25:32 20° SW 04:28:38 10° S visible
31 Oct 9.7 03:13:26 13° SSE 03:13:26 13° SSE 03:13:55 10° SE visible
